Time,TemperatureF,DewpointF,PressureIn,WindDirection,WindDirectionDegrees,WindSpeedMPH,WindSpeedGustMPH,Humidity,HourlyPrecipIn,Conditions,Clouds,dailyrainin,SoftwareType,DateUTC
2013-01-22 00:00:00,10.9,0.8,30.23,WSW,251,4.0,7.0,63,0.00,,SCT035,0.00,VWS V14.01,2013-01-22 05:00:00,
2013-01-22 00:03:00,10.8,0.3,30.23,WSW,255,6.0,13.0,62,0.00,,CLR,0.00,VWS V14.01,2013-01-22 05:03:00,
2013-01-22 00:05:00,10.8,0.3,30.23,West,263,3.0,13.0,62,0.00,,,0.00,VWS V14.01,2013-01-22 05:05:00,
2013-01-22 00:08:00,10.7,0.3,30.23,NW,309,3.0,11.0,62,0.00,,CLR,0.00,VWS V14.01,2013-01-22 05:08:00,
2013-01-22 00:10:00,10.7,0.3,30.23,WNW,300,4.0,11.0,62,0.00,,,0.00,VWS V14.01,2013-01-22 05:10:00,
2013-01-22 00:13:00,10.7,0.6,30.23,South,170,2.0,7.0,63,0.00,,CLR,0.00,VWS V14.01,2013-01-22 05:13:00,
2013-01-22 00:15:00,10.6,0.5,30.23,WNW,286,3.0,7.0,63,0.00,,,0.00,VWS V14.01,2013-01-22 05:15:00,
2013-01-22 00:18:00,10.6,0.5,30.23,NW,311,5.0,9.0,63,0.00,,CLR,0.00,VWS V14.01,2013-01-22 05:18:00,
2013-01-22 00:20:00,10.6,0.5,30.23,West,278,2.0,9.0,63,0.00,,,0.00,VWS V14.01,2013-01-22 05:20:00,
2013-01-22 00:23:00,10.6,0.8,30.23,WSW,253,4.0,9.0,64,0.00,,CLR,0.00,VWS V14.01,2013-01-22 05:23:00,
2013-01-22 00:25:00,10.6,1.2,30.23,WSW,246,4.0,9.0,65,0.00,,,0.00,VWS V14.01,2013-01-22 05:25:00,
2013-01-22 00:28:00,10.6,1.5,30.22,SSE,150,1.0,7.0,66,0.00,,CLR,0.00,VWS V14.01,2013-01-22 05:28:00,
2013-01-22 00:30:00,10.6,1.8,30.23,West,266,3.0,13.0,67,0.00,,,0.00,VWS V14.01,2013-01-22 05:30:00,
2013-01-22 00:33:00,10.5,1.7,30.23,South,176,3.0,9.0,67,0.00,,CLR,0.00,VWS V14.01,2013-01-22 05:33:00,
2013-01-22 00:35:00,10.4,1.6,30.23,SSW,204,3.0,9.0,67,0.00,,,0.00,VWS V14.01,2013-01-22 05:35:00,
2013-01-22 00:38:00,10.4,2.0,30.23,WNW,289,2.0,7.0,68,0.00,,CLR,0.00,VWS V14.01,2013-01-22 05:38:00,
2013-01-22 00:40:00,10.4,1.6,30.23,West,276,8.0,9.0,67,0.00,,,0.00,VWS V14.01,2013-01-22 05:40:00,
2013-01-22 00:43:00,10.4,1.6,30.23,WNW,295,2.0,9.0,67,0.00,,CLR,0.00,VWS V14.01,2013-01-22 05:43:00,
2013-01-22 00:45:00,10.3,1.9,30.23,West,270,3.0,9.0,68,0.00,,,0.00,VWS V14.01,2013-01-22 05:45:00,
2013-01-22 00:48:00,10.3,1.9,30.23,West,260,3.0,8.0,68,0.00,,CLR,0.00,VWS V14.01,2013-01-22 05:48:00,
2013-01-22 00:50:00,10.3,1.9,30.23,SW,232,5.0,8.0,68,0.00,,,0.00,VWS V14.01,2013-01-22 05:50:00,
2013-01-22 00:53:00,10.2,1.4,30.23,NNE,30,5.0,10.0,67,0.00,,CLR,0.00,VWS V14.01,2013-01-22 05:53:00,
2013-01-22 00:55:00,10.2,1.4,30.23,SSW,194,3.0,10.0,67,0.00,,,0.00,VWS V14.01,2013-01-22 05:55:00,
2013-01-22 00:58:00,10.2,1.4,30.23,SSE,148,2.0,5.0,67,0.00,,CLR,0.00,VWS V14.01,2013-01-22 05:58:00,
2013-01-22 01:00:00,10.2,1.4,30.23,NW,317,4.0,9.0,67,0.00,,,0.00,VWS V14.01,2013-01-22 06:00:00,
2013-01-22 01:03:00,10.2,1.1,30.23,West,266,2.0,8.0,66,0.00,,CLR,0.00,VWS V14.01,2013-01-22 06:03:00,
2013-01-22 01:05:00,10.2,1.1,30.23,WSW,248,4.0,8.0,66,0.00,,,0.00,VWS V14.01,2013-01-22 06:05:00,
2013-01-22 01:08:00,10.1,1.0,30.23,WSW,247,3.0,5.0,66,0.00,,CLR,0.00,VWS V14.01,2013-01-22 06:08:00,
2013-01-22 01:10:00,10.1,1.3,30.23,West,274,1.0,5.0,67,0.00,,,0.00,VWS V14.01,2013-01-22 06:10:00,
2013-01-22 01:13:00,10.0,0.9,30.23,SSW,209,2.0,7.0,66,0.00,,CLR,0.00,VWS V14.01,2013-01-22 06:13:00,
2013-01-22 01:15:00,10.0,0.9,30.23,West,270,1.0,7.0,66,0.00,,,0.00,VWS V14.01,2013-01-22 06:15:00,
2013-01-22 01:18:00,10.0,1.2,30.23,WSW,255,0.0,4.0,67,0.00,,CLR,0.00,VWS V14.01,2013-01-22 06:18:00,
2013-01-22 01:20:00,9.9,1.5,30.23,WSW,257,5.0,7.0,68,0.00,,,0.00,VWS V14.01,2013-01-22 06:20:00,
2013-01-22 01:23:00,9.9,0.8,30.23,WSW,253,2.0,6.0,66,0.00,,CLR,0.00,VWS V14.01,2013-01-22 06:23:00,
2013-01-22 01:25:00,9.9,0.8,30.23,WSW,257,2.0,6.0,66,0.00,,,0.00,VWS V14.01,2013-01-22 06:25:00,
2013-01-22 01:28:00,9.9,0.8,30.23,WNW,295,6.0,8.0,66,0.00,,CLR,0.00,VWS V14.01,2013-01-22 06:28:00,
2013-01-22 01:30:00,9.9,0.5,30.23,WSW,252,8.0,10.0,65,0.00,,,0.00,VWS V14.01,2013-01-22 06:30:00,
2013-01-22 01:33:00,9.9,0.5,30.23,SW,215,0.0,8.0,65,0.00,,CLR,0.00,VWS V14.01,2013-01-22 06:33:00,
2013-01-22 01:35:00,9.9,0.8,30.23,WSW,240,3.0,8.0,66,0.00,,,0.00,VWS V14.01,2013-01-22 06:35:00,
2013-01-22 01:38:00,9.8,0.7,30.23,West,278,2.0,6.0,66,0.00,,CLR,0.00,VWS V14.01,2013-01-22 06:38:00,
2013-01-22 01:40:00,9.8,0.4,30.23,West,281,3.0,9.0,65,0.00,,,0.00,VWS V14.01,2013-01-22 06:40:00,
2013-01-22 01:43:00,9.8,0.4,30.23,WNW,302,5.0,6.0,65,0.00,,CLR,0.00,VWS V14.01,2013-01-22 06:43:00,
2013-01-22 01:45:00,9.8,0.4,30.24,WNW,290,3.0,9.0,65,0.00,,,0.00,VWS V14.01,2013-01-22 06:45:00,
2013-01-22 01:49:00,9.8,0.1,30.24,West,266,3.0,4.0,64,0.00,,CLR,0.00,VWS V14.01,2013-01-22 06:49:00,
2013-01-22 01:50:00,9.8,0.4,30.24,West,269,3.0,7.0,65,0.00,,,0.00,VWS V14.01,2013-01-22 06:50:00,
2013-01-22 01:54:00,9.7,0.3,30.24,NW,326,3.0,8.0,65,0.00,,CLR,0.00,VWS V14.01,2013-01-22 06:54:00,
2013-01-22 01:55:00,9.7,0.3,30.24,NW,307,2.0,8.0,65,0.00,,,0.00,VWS V14.01,2013-01-22 06:55:00,
2013-01-22 01:59:00,9.7,0.6,30.24,SW,217,3.0,9.0,66,0.00,,CLR,0.00,VWS V14.01,2013-01-22 06:59:00,
2013-01-22 02:00:00,9.7,0.3,30.24,WSW,255,4.0,9.0,65,0.00,,,0.00,VWS V14.01,2013-01-22 07:00:00,
2013-01-22 02:04:00,9.7,0.3,30.24,SW,215,4.0,5.0,65,0.00,,CLR,0.00,VWS V14.01,2013-01-22 07:04:00,
2013-01-22 02:05:00,9.7,0.3,30.24,West,273,3.0,5.0,65,0.00,,,0.00,VWS V14.01,2013-01-22 07:05:00,
2013-01-22 02:09:00,9.7,0.3,30.24,WSW,253,2.0,9.0,65,0.00,,CLR,0.00,VWS V14.01,2013-01-22 07:09:00,
2013-01-22 02:10:00,9.7,0.3,30.24,West,274,4.0,9.0,65,0.00,,,0.00,VWS V14.01,2013-01-22 07:10:00,
2013-01-22 02:14:00,9.6,0.5,30.24,WNW,298,1.0,5.0,66,0.00,,CLR,0.00,VWS V14.01,2013-01-22 07:14:00,
2013-01-22 02:15:00,9.6,0.5,30.24,WSW,255,3.0,9.0,66,0.00,,,0.00,VWS V14.01,2013-01-22 07:15:00,
2013-01-22 02:19:00,9.6,0.5,30.24,WNW,297,1.0,12.0,66,0.00,,CLR,0.00,VWS V14.01,2013-01-22 07:19:00,
2013-01-22 02:20:00,9.6,0.2,30.25,SE,136,1.0,12.0,65,0.00,,,0.00,VWS V14.01,2013-01-22 07:20:00,
2013-01-22 02:24:00,9.7,0.6,30.25,West,273,1.0,6.0,66,0.00,,CLR,0.00,VWS V14.01,2013-01-22 07:24:00,
2013-01-22 02:25:00,9.7,0.6,30.25,WNW,300,6.0,9.0,66,0.00,,,0.00,VWS V14.01,2013-01-22 07:25:00,
2013-01-22 02:29:00,9.6,0.5,30.25,WSW,250,4.0,6.0,66,0.00,,CLR,0.00,VWS V14.01,2013-01-22 07:29:00,
2013-01-22 02:30:00,9.6,0.5,30.25,WNW,295,0.0,6.0,66,0.00,,,0.00,VWS V14.01,2013-01-22 07:30:00,
2013-01-22 02:34:00,9.5,0.1,30.25,West,259,4.0,4.0,65,0.00,,CLR,0.00,VWS V14.01,2013-01-22 07:34:00,
2013-01-22 02:35:00,9.5,0.1,30.25,WSW,248,0.0,4.0,65,0.00,,,0.00,VWS V14.01,2013-01-22 07:35:00,
2013-01-22 02:39:00,9.5,0.1,30.25,SW,229,1.0,6.0,65,0.00,,CLR,0.00,VWS V14.01,2013-01-22 07:39:00,
2013-01-22 02:40:00,9.4,0.3,30.25,SSW,205,0.0,6.0,66,0.00,,,0.00,VWS V14.01,2013-01-22 07:40:00,
2013-01-22 02:44:00,9.4,0.3,30.25,SE,146,2.0,2.0,66,0.00,,CLR,0.00,VWS V14.01,2013-01-22 07:44:00,
2013-01-22 02:45:00,9.4,0.3,30.25,SW,226,0.0,2.0,66,0.00,,,0.00,VWS V14.01,2013-01-22 07:45:00,
2013-01-22 02:49:00,9.4,0.3,30.25,WSW,252,3.0,3.0,66,0.00,,CLR,0.00,VWS V14.01,2013-01-22 07:49:00,
2013-01-22 02:50:00,9.4,0.0,30.25,ESE,122,1.0,4.0,65,0.00,,,0.00,VWS V14.01,2013-01-22 07:50:00,
2013-01-22 02:54:00,9.3,-0.1,30.25,SSE,160,2.0,3.0,65,0.00,,CLR,0.00,VWS V14.01,2013-01-22 07:54:00,
2013-01-22 02:55:00,9.3,-0.1,30.25,SSW,210,2.0,4.0,65,0.00,,,0.00,VWS V14.01,2013-01-22 07:55:00,
2013-01-22 02:59:00,9.3,-0.1,30.25,WSW,240,0.0,2.0,65,0.00,,CLR,0.00,VWS V14.01,2013-01-22 07:59:00,
2013-01-22 03:00:00,9.3,0.2,30.25,West,270,2.0,2.0,66,0.00,,,0.00,VWS V14.01,2013-01-22 08:00:00,
2013-01-22 03:04:00,9.3,0.3,30.26,West,272,4.0,9.0,66,0.00,,CLR,0.00,VWS V14.01,2013-01-22 08:04:00,
2013-01-22 03:05:00,9.3,-0.1,30.25,West,266,4.0,9.0,65,0.00,,,0.00,VWS V14.01,2013-01-22 08:05:00,
2013-01-22 03:09:00,9.3,-0.1,30.25,WNW,294,5.0,9.0,65,0.00,,CLR,0.00,VWS V14.01,2013-01-22 08:09:00,
2013-01-22 03:10:00,9.3,-0.1,30.26,WNW,297,2.0,9.0,65,0.00,,,0.00,VWS V14.01,2013-01-22 08:10:00,
2013-01-22 03:14:00,9.3,-0.1,30.26,West,278,0.0,7.0,65,0.00,,CLR,0.00,VWS V14.01,2013-01-22 08:14:00,
2013-01-22 03:15:00,9.3,-0.1,30.26,West,281,2.0,7.0,65,0.00,,,0.00,VWS V14.01,2013-01-22 08:15:00,
2013-01-22 03:19:00,9.3,-0.1,30.26,ESE,117,0.0,6.0,65,0.00,,CLR,0.00,VWS V14.01,2013-01-22 08:19:00,
2013-01-22 03:20:00,9.3,-0.1,30.26,WSW,243,0.0,6.0,65,0.00,,,0.00,VWS V14.01,2013-01-22 08:20:00,
2013-01-22 03:24:00,9.2,0.2,30.26,WNW,295,1.0,6.0,66,0.00,,CLR,0.00,VWS V14.01,2013-01-22 08:24:00,
2013-01-22 03:25:00,9.2,-0.2,30.26,West,262,2.0,6.0,65,0.00,,,0.00,VWS V14.01,2013-01-22 08:25:00,
2013-01-22 03:29:00,9.2,-0.2,30.25,West,275,8.0,8.0,65,0.00,,CLR,0.00,VWS V14.01,2013-01-22 08:29:00,
2013-01-22 03:30:00,9.2,-0.2,30.26,West,264,2.0,10.0,65,0.00,,,0.00,VWS V14.01,2013-01-22 08:30:00,
2013-01-22 03:34:00,9.2,0.2,30.26,SSE,162,0.0,4.0,66,0.00,,CLR,0.00,VWS V14.01,2013-01-22 08:34:00,
2013-01-22 03:35:00,9.2,0.2,30.26,North,360,2.0,6.0,66,0.00,,,0.00,VWS V14.01,2013-01-22 08:35:00,
2013-01-22 03:39:00,9.1,0.1,30.26,SSW,194,1.0,4.0,66,0.00,,CLR,0.00,VWS V14.01,2013-01-22 08:39:00,
2013-01-22 03:40:00,9.1,0.1,30.26,WSW,249,1.0,4.0,66,0.00,,,0.00,VWS V14.01,2013-01-22 08:40:00,
2013-01-22 03:44:00,9.0,0.0,30.26,SSW,202,1.0,8.0,66,0.00,,CLR,0.00,VWS V14.01,2013-01-22 08:44:00,
2013-01-22 03:45:00,9.0,0.3,30.25,SW,226,1.0,8.0,67,0.00,,,0.00,VWS V14.01,2013-01-22 08:45:00,
2013-01-22 03:49:00,9.0,0.0,30.25,WSW,239,2.0,8.0,66,0.00,,CLR,0.00,VWS V14.01,2013-01-22 08:49:00,
2013-01-22 03:50:00,9.0,0.3,30.26,SW,226,2.0,8.0,67,0.00,,,0.00,VWS V14.01,2013-01-22 08:50:00,
2013-01-22 03:54:00,9.1,0.1,30.26,NNE,15,2.0,12.0,66,0.00,,CLR,0.00,VWS V14.01,2013-01-22 08:54:00,
2013-01-22 03:55:00,9.0,0.3,30.26,West,278,3.0,12.0,67,0.00,,,0.00,VWS V14.01,2013-01-22 08:55:00,
2013-01-22 03:59:00,9.0,0.0,30.25,WNW,295,0.0,11.0,66,0.00,,CLR,0.00,VWS V14.01,2013-01-22 08:59:00,
2013-01-22 04:00:00,9.0,0.0,30.25,WNW,293,2.0,11.0,66,0.00,,,0.00,VWS V14.01,2013-01-22 09:00:00,
2013-01-22 04:04:00,9.0,0.3,30.25,SE,136,2.0,6.0,67,0.00,,CLR,0.00,VWS V14.01,2013-01-22 09:04:00,
2013-01-22 04:05:00,8.9,0.2,30.25,West,276,2.0,6.0,67,0.00,,,0.00,VWS V14.01,2013-01-22 09:05:00,
2013-01-22 04:09:00,8.9,-0.1,30.25,SW,216,4.0,5.0,66,0.00,,CLR,0.00,VWS V14.01,2013-01-22 09:09:00,
2013-01-22 04:10:00,8.9,-0.1,30.25,West,262,1.0,5.0,66,0.00,,,0.00,VWS V14.01,2013-01-22 09:10:00,
2013-01-22 04:14:00,8.8,0.1,30.25,SW,225,1.0,6.0,67,0.00,,CLR,0.00,VWS V14.01,2013-01-22 09:14:00,
2013-01-22 04:15:00,8.8,0.1,30.25,West,269,2.0,6.0,67,0.00,,,0.00,VWS V14.01,2013-01-22 09:15:00,
2013-01-22 04:19:00,8.9,0.2,30.26,WNW,293,1.0,5.0,67,0.00,,CLR,0.00,VWS V14.01,2013-01-22 09:19:00,
2013-01-22 04:20:00,8.8,0.4,30.26,WSW,242,1.0,5.0,68,0.00,,,0.00,VWS V14.01,2013-01-22 09:20:00,
2013-01-22 04:24:00,8.8,0.4,30.26,West,280,2.0,4.0,68,0.00,,CLR,0.00,VWS V14.01,2013-01-22 09:24:00,
2013-01-22 04:25:00,8.8,0.4,30.26,WSW,246,3.0,7.0,68,0.00,,,0.00,VWS V14.01,2013-01-22 09:25:00,
2013-01-22 04:29:00,8.8,0.4,30.26,West,277,3.0,7.0,68,0.00,,CLR,0.00,VWS V14.01,2013-01-22 09:29:00,
2013-01-22 04:30:00,8.7,0.3,30.26,West,259,3.0,7.0,68,0.00,,,0.00,VWS V14.01,2013-01-22 09:30:00,
2013-01-22 04:34:00,8.7,0.3,30.26,NW,307,1.0,4.0,68,0.00,,CLR,0.00,VWS V14.01,2013-01-22 09:34:00,
2013-01-22 04:35:00,8.7,0.3,30.26,West,262,3.0,4.0,68,0.00,,,0.00,VWS V14.01,2013-01-22 09:35:00,
2013-01-22 04:39:00,8.7,0.3,30.26,South,180,0.0,7.0,68,0.00,,CLR,0.00,VWS V14.01,2013-01-22 09:39:00,
2013-01-22 04:40:00,8.7,0.3,30.26,SSE,165,1.0,7.0,68,0.00,,,0.00,VWS V14.01,2013-01-22 09:40:00,
2013-01-22 04:44:00,8.6,0.2,30.26,SW,231,1.0,5.0,68,0.00,,CLR,0.00,VWS V14.01,2013-01-22 09:44:00,
2013-01-22 04:45:00,8.6,0.2,30.26,SSW,209,2.0,5.0,68,0.00,,,0.00,VWS V14.01,2013-01-22 09:45:00,
2013-01-22 04:49:00,8.6,0.2,30.26,West,259,1.0,3.0,68,0.00,,CLR,0.00,VWS V14.01,2013-01-22 09:49:00,
2013-01-22 04:50:00,8.5,0.1,30.26,West,269,3.0,11.0,68,0.00,,,0.00,VWS V14.01,2013-01-22 09:50:00,
2013-01-22 04:54:00,8.4,0.0,30.27,WSW,246,0.0,3.0,68,0.00,,CLR,0.00,VWS V14.01,2013-01-22 09:54:00,
2013-01-22 04:55:00,8.4,0.0,30.27,WSW,245,0.0,3.0,68,0.00,,,0.00,VWS V14.01,2013-01-22 09:55:00,
2013-01-22 04:59:00,8.3,-0.1,30.27,WSW,248,1.0,10.0,68,0.00,,CLR,0.00,VWS V14.01,2013-01-22 09:59:00,
2013-01-22 05:00:00,8.3,-0.1,30.27,SSW,203,1.0,10.0,68,0.00,,,0.00,VWS V14.01,2013-01-22 10:00:00,
2013-01-22 05:04:00,8.3,-0.1,30.27,SSW,200,1.0,12.0,68,0.00,,CLR,0.00,VWS V14.01,2013-01-22 10:04:00,
2013-01-22 05:05:00,8.3,-0.1,30.27,SSE,156,5.0,12.0,68,0.00,,,0.00,VWS V14.01,2013-01-22 10:05:00,
2013-01-22 05:09:00,8.4,0.0,30.27,SSE,159,1.0,13.0,68,0.00,,CLR,0.00,VWS V14.01,2013-01-22 10:09:00,
2013-01-22 05:10:00,8.4,-0.3,30.27,SW,224,1.0,13.0,67,0.00,,,0.00,VWS V14.01,2013-01-22 10:10:00,
2013-01-22 05:14:00,8.4,0.0,30.27,SSE,168,1.0,5.0,68,0.00,,CLR,0.00,VWS V14.01,2013-01-22 10:14:00,
2013-01-22 05:15:00,8.4,0.0,30.27,WSW,246,1.0,5.0,68,0.00,,,0.00,VWS V14.01,2013-01-22 10:15:00,
2013-01-22 05:19:00,8.3,-0.4,30.27,West,266,4.0,9.0,67,0.00,,CLR,0.00,VWS V14.01,2013-01-22 10:19:00,
2013-01-22 05:20:00,8.3,-0.4,30.27,WSW,246,4.0,9.0,67,0.00,,,0.00,VWS V14.01,2013-01-22 10:20:00,
2013-01-22 05:24:00,8.3,-0.4,30.28,SE,129,4.0,5.0,67,0.00,,CLR,0.00,VWS V14.01,2013-01-22 10:24:00,
2013-01-22 05:25:00,8.3,-0.4,30.28,WNW,300,1.0,5.0,67,0.00,,,0.00,VWS V14.01,2013-01-22 10:25:00,
2013-01-22 05:29:00,8.3,-0.4,30.28,SW,224,0.0,8.0,67,0.00,,CLR,0.00,VWS V14.01,2013-01-22 10:29:00,
2013-01-22 05:30:00,8.3,-0.1,30.28,South,169,1.0,8.0,68,0.00,,,0.00,VWS V14.01,2013-01-22 10:30:00,
2013-01-22 05:34:00,8.2,-0.5,30.28,West,262,0.0,5.0,67,0.00,,CLR,0.00,VWS V14.01,2013-01-22 10:34:00,
2013-01-22 05:35:00,8.2,-0.5,30.28,WNW,300,7.0,7.0,67,0.00,,,0.00,VWS V14.01,2013-01-22 10:35:00,
2013-01-22 05:39:00,8.1,-0.3,30.28,WSW,252,1.0,7.0,68,0.00,,CLR,0.00,VWS V14.01,2013-01-22 10:39:00,
2013-01-22 05:40:00,8.2,-0.2,30.28,WSW,255,1.0,7.0,68,0.00,,,0.00,VWS V14.01,2013-01-22 10:40:00,
2013-01-22 05:44:00,8.1,-0.3,30.28,SSW,202,4.0,6.0,68,0.00,,CLR,0.00,VWS V14.01,2013-01-22 10:44:00,
2013-01-22 05:45:00,8.1,-0.3,30.28,West,276,2.0,6.0,68,0.00,,,0.00,VWS V14.01,2013-01-22 10:45:00,
2013-01-22 05:49:00,8.1,-0.3,30.28,WSW,252,2.0,7.0,68,0.00,,CLR,0.00,VWS V14.01,2013-01-22 10:49:00,
2013-01-22 05:50:00,8.1,-0.3,30.28,WNW,297,3.0,7.0,68,0.00,,,0.00,VWS V14.01,2013-01-22 10:50:00,
2013-01-22 05:54:00,8.0,-0.4,30.29,NW,318,4.0,7.0,68,0.00,,CLR,0.00,VWS V14.01,2013-01-22 10:54:00,
2013-01-22 05:55:00,8.0,-0.4,30.29,WSW,242,2.0,7.0,68,0.00,,,0.00,VWS V14.01,2013-01-22 10:55:00,
2013-01-22 05:59:00,8.0,-0.4,30.29,WNW,298,1.0,12.0,68,0.00,,CLR,0.00,VWS V14.01,2013-01-22 10:59:00,
2013-01-22 06:00:00,8.1,-0.3,30.29,West,271,1.0,12.0,68,0.00,,,0.00,VWS V14.01,2013-01-22 11:00:00,
2013-01-22 06:05:00,8.0,-0.1,30.29,WSW,242,1.0,9.0,69,0.00,,CLR,0.00,VWS V14.01,2013-01-22 11:05:00,
2013-01-22 06:10:00,8.0,-0.4,30.29,West,278,2.0,4.0,68,0.00,,CLR,0.00,VWS V14.01,2013-01-22 11:10:00,
2013-01-22 06:15:00,7.9,-0.1,30.30,West,271,2.0,7.0,69,0.00,,CLR,0.00,VWS V14.01,2013-01-22 11:15:00,
2013-01-22 06:20:00,7.9,-0.1,30.30,South,169,1.0,3.0,69,0.00,,CLR,0.00,VWS V14.01,2013-01-22 11:20:00,
2013-01-22 06:25:00,7.8,-0.2,30.30,SE,129,0.0,2.0,69,0.00,,CLR,0.00,VWS V14.01,2013-01-22 11:25:00,
2013-01-22 06:30:00,7.6,-0.7,30.30,WSW,239,0.0,4.0,68,0.00,,CLR,0.00,VWS V14.01,2013-01-22 11:30:00,
2013-01-22 06:35:00,7.6,-0.4,30.30,NNW,331,1.0,7.0,69,0.00,,SCT110,0.00,VWS V14.01,2013-01-22 11:35:00,
2013-01-22 06:40:00,7.6,-0.4,30.31,WNW,293,4.0,8.0,69,0.00,,SCT110,0.00,VWS V14.01,2013-01-22 11:40:00,
2013-01-22 06:45:00,7.7,-0.6,30.31,SW,228,2.0,9.0,68,0.00,,SCT110,0.00,VWS V14.01,2013-01-22 11:45:00,
2013-01-22 06:50:00,7.7,-1.0,30.31,West,271,2.0,12.0,67,0.00,,SCT110,0.00,VWS V14.01,2013-01-22 11:50:00,
2013-01-22 06:55:00,7.6,-0.7,30.31,WSW,251,5.0,7.0,68,0.00,,SCT110,0.00,VWS V14.01,2013-01-22 11:55:00,
2013-01-22 07:00:00,7.6,-0.7,30.31,SW,231,5.0,8.0,68,0.00,,SCT110,0.00,VWS V14.01,2013-01-22 12:00:00,
2013-01-22 07:05:00,7.5,-0.5,30.31,SSW,212,5.0,5.0,69,0.00,,CLR,0.00,VWS V14.01,2013-01-22 12:05:00,
2013-01-22 07:10:00,7.5,-0.5,30.31,SW,231,3.0,7.0,69,0.00,,CLR,0.00,VWS V14.01,2013-01-22 12:10:00,
2013-01-22 07:15:00,7.4,-0.6,30.31,WNW,282,1.0,7.0,69,0.00,,CLR,0.00,VWS V14.01,2013-01-22 12:15:00,
2013-01-22 07:20:00,7.3,-0.7,30.32,WSW,253,4.0,5.0,69,0.00,,CLR,0.00,VWS V14.01,2013-01-22 12:20:00,
2013-01-22 07:25:00,7.3,-1.0,30.32,West,263,1.0,6.0,68,0.00,,CLR,0.00,VWS V14.01,2013-01-22 12:25:00,
2013-01-22 07:30:00,7.3,-0.7,30.32,SW,224,6.0,7.0,69,0.00,,CLR,0.00,VWS V14.01,2013-01-22 12:30:00,
2013-01-22 07:35:00,7.3,-0.7,30.32,WNW,284,4.0,7.0,69,0.00,,SCT110,0.00,VWS V14.01,2013-01-22 12:35:00,
2013-01-22 07:40:00,7.2,-0.8,30.32,WNW,284,1.0,6.0,69,0.00,,SCT110,0.00,VWS V14.01,2013-01-22 12:40:00,
2013-01-22 07:45:00,7.1,-0.6,30.33,West,264,1.0,7.0,70,0.00,,BKN110,0.00,VWS V14.01,2013-01-22 12:45:00,
2013-01-22 07:50:00,7.1,-0.6,30.33,WSW,242,2.0,6.0,70,0.00,,BKN110,0.00,VWS V14.01,2013-01-22 12:50:00,
2013-01-22 07:55:00,7.1,-0.6,30.33,SW,221,2.0,5.0,70,0.00,,BKN110,0.00,VWS V14.01,2013-01-22 12:55:00,
2013-01-22 08:00:00,7.1,-0.6,30.33,SW,226,0.0,5.0,70,0.00,,SCT110,0.00,VWS V14.01,2013-01-22 13:00:00,
2013-01-22 08:05:00,7.0,-0.4,30.34,SSE,160,0.0,6.0,71,0.00,,SCT110,0.00,VWS V14.01,2013-01-22 13:05:00,
2013-01-22 08:10:00,7.0,-0.7,30.34,South,187,2.0,7.0,70,0.00,,SCT110,0.00,VWS V14.01,2013-01-22 13:10:00,
2013-01-22 08:15:00,7.1,-0.6,30.35,WSW,240,3.0,7.0,70,0.00,,SCT110,0.00,VWS V14.01,2013-01-22 13:15:00,
2013-01-22 08:20:00,7.0,-1.0,30.35,WNW,293,3.0,8.0,69,0.00,,SCT110,0.00,VWS V14.01,2013-01-22 13:20:00,
2013-01-22 08:25:00,7.1,-0.9,30.36,WNW,294,2.0,5.0,69,0.00,,SCT110,0.00,VWS V14.01,2013-01-22 13:25:00,
2013-01-22 08:30:00,7.1,-0.9,30.36,SW,222,2.0,9.0,69,0.00,,CLR,0.00,VWS V14.01,2013-01-22 13:30:00,
2013-01-22 08:35:00,7.1,-0.9,30.36,WNW,293,2.0,6.0,69,0.00,,CLR,0.00,VWS V14.01,2013-01-22 13:35:00,
2013-01-22 08:40:00,7.1,-1.2,30.36,WNW,284,1.0,9.0,68,0.00,,CLR,0.00,VWS V14.01,2013-01-22 13:40:00,
2013-01-22 08:45:00,7.2,-1.1,30.36,NW,304,3.0,7.0,68,0.00,,CLR,0.00,VWS V14.01,2013-01-22 13:45:00,
2013-01-22 08:50:00,7.3,-1.0,30.36,West,281,1.0,9.0,68,0.00,,CLR,0.00,VWS V14.01,2013-01-22 13:50:00,
2013-01-22 08:55:00,7.5,-0.5,30.36,SSW,210,0.0,5.0,69,0.00,,CLR,0.00,VWS V14.01,2013-01-22 13:55:00,
2013-01-22 09:00:00,7.6,-0.7,30.37,WSW,250,2.0,8.0,68,0.00,,CLR,0.00,VWS V14.01,2013-01-22 14:00:00,
2013-01-22 09:05:00,7.7,-0.3,30.37,WSW,243,3.0,5.0,69,0.00,,CLR,0.00,VWS V14.01,2013-01-22 14:05:00,
2013-01-22 09:10:00,7.8,-0.6,30.37,WNW,289,3.0,9.0,68,0.00,,CLR,0.00,VWS V14.01,2013-01-22 14:10:00,
2013-01-22 09:15:00,7.7,-1.0,30.37,WNW,283,2.0,8.0,67,0.00,,CLR,0.00,VWS V14.01,2013-01-22 14:15:00,
2013-01-22 09:20:00,7.9,-0.4,30.37,NW,308,2.0,7.0,68,0.00,,CLR,0.00,VWS V14.01,2013-01-22 14:20:00,
2013-01-22 09:25:00,8.0,-0.4,30.38,West,266,4.0,7.0,68,0.00,,CLR,0.00,VWS V14.01,2013-01-22 14:25:00,
2013-01-22 09:30:00,8.2,-0.5,30.38,WSW,248,3.0,6.0,67,0.00,,CLR,0.00,VWS V14.01,2013-01-22 14:30:00,
2013-01-22 09:35:00,8.3,-0.4,30.38,ENE,70,0.0,6.0,67,0.00,,CLR,0.00,VWS V14.01,2013-01-22 14:35:00,
2013-01-22 09:40:00,8.3,-0.7,30.38,NW,311,3.0,9.0,66,0.00,,CLR,0.00,VWS V14.01,2013-01-22 14:40:00,
2013-01-22 09:45:00,8.4,-0.6,30.39,West,278,2.0,6.0,66,0.00,,CLR,0.00,VWS V14.01,2013-01-22 14:45:00,
2013-01-22 09:50:00,8.6,-0.1,30.39,NW,311,1.0,8.0,67,0.00,,CLR,0.00,VWS V14.01,2013-01-22 14:50:00,
2013-01-22 09:55:00,9.0,0.3,30.39,WNW,290,3.0,4.0,67,0.00,,CLR,0.00,VWS V14.01,2013-01-22 14:55:00,
2013-01-22 10:00:00,9.4,0.3,30.39,WSW,243,1.0,4.0,66,0.00,,CLR,0.00,VWS V14.01,2013-01-22 15:00:00,
2013-01-22 10:05:00,9.7,0.3,30.39,West,259,4.0,4.0,65,0.00,,CLR,0.00,VWS V14.01,2013-01-22 15:05:00,
2013-01-22 10:10:00,9.9,0.5,30.40,WNW,285,5.0,7.0,65,0.00,,CLR,0.00,VWS V14.01,2013-01-22 15:10:00,
2013-01-22 10:15:00,10.0,0.6,30.40,WSW,245,5.0,6.0,65,0.00,,CLR,0.00,VWS V14.01,2013-01-22 15:15:00,
2013-01-22 10:20:00,9.9,0.5,30.39,SW,229,4.0,6.0,65,0.00,,CLR,0.00,VWS V14.01,2013-01-22 15:20:00,
2013-01-22 10:25:00,10.2,0.5,30.40,SW,232,4.0,4.0,64,0.00,,CLR,0.00,VWS V14.01,2013-01-22 15:25:00,
2013-01-22 10:30:00,10.2,0.1,30.40,NNW,332,10.0,10.0,63,0.00,,CLR,0.00,VWS V14.01,2013-01-22 15:30:00,
2013-01-22 10:35:00,10.2,0.5,30.40,NW,309,1.0,10.0,64,0.00,,CLR,0.00,VWS V14.01,2013-01-22 15:35:00,
2013-01-22 10:40:00,10.8,1.4,30.40,WNW,293,0.0,5.0,65,0.00,,CLR,0.00,VWS V14.01,2013-01-22 15:40:00,
2013-01-22 10:45:00,11.3,1.5,30.40,South,174,3.0,5.0,64,0.00,,CLR,0.00,VWS V14.01,2013-01-22 15:45:00,
2013-01-22 10:50:00,11.1,0.6,30.40,SW,224,2.0,2.0,62,0.00,,CLR,0.00,VWS V14.01,2013-01-22 15:50:00,
2013-01-22 10:55:00,10.9,0.4,30.40,West,262,3.0,5.0,62,0.00,,CLR,0.00,VWS V14.01,2013-01-22 15:55:00,
2013-01-22 11:00:00,11.2,1.4,30.40,WNW,290,2.0,5.0,64,0.00,,CLR,0.00,VWS V14.01,2013-01-22 16:00:00,
2013-01-22 11:05:00,11.3,1.2,30.40,SSW,194,1.0,5.0,63,0.00,,SCT028,0.00,VWS V14.01,2013-01-22 16:05:00,
2013-01-22 11:10:00,11.4,1.3,30.40,West,278,1.0,10.0,63,0.00,,SCT028,0.00,VWS V14.01,2013-01-22 16:10:00,
2013-01-22 11:15:00,11.6,0.8,30.40,WNW,284,2.0,5.0,61,0.00,,SCT028,0.00,VWS V14.01,2013-01-22 16:15:00,
2013-01-22 11:20:00,11.5,0.7,30.40,South,186,1.0,6.0,61,0.00,,SCT028,0.00,VWS V14.01,2013-01-22 16:20:00,
2013-01-22 11:25:00,11.6,1.1,30.40,West,277,4.0,6.0,62,0.00,,SCT028,0.00,VWS V14.01,2013-01-22 16:25:00,
2013-01-22 11:30:00,11.6,1.8,30.40,SSW,205,0.0,4.0,64,0.00,,SCT028,0.00,VWS V14.01,2013-01-22 16:30:00,
2013-01-22 11:35:00,12.1,1.9,30.40,West,264,2.0,4.0,63,0.00,,BKN038,0.00,VWS V14.01,2013-01-22 16:35:00,
2013-01-22 11:40:00,12.0,1.5,30.40,NW,323,1.0,7.0,62,0.00,,BKN038,0.00,VWS V14.01,2013-01-22 16:40:00,
2013-01-22 11:45:00,12.3,2.1,30.40,WNW,284,2.0,4.0,63,0.00,,BKN038,0.00,VWS V14.01,2013-01-22 16:45:00,
2013-01-22 11:50:00,12.4,1.5,30.40,WSW,256,4.0,9.0,61,0.00,,BKN038,0.00,VWS V14.01,2013-01-22 16:50:00,
2013-01-22 11:55:00,12.3,1.4,30.40,West,266,3.0,7.0,61,0.00,,BKN038,0.00,VWS V14.01,2013-01-22 16:55:00,
2013-01-22 12:00:00,12.3,2.1,30.39,West,273,0.0,5.0,63,0.00,,BKN032,0.00,VWS V14.01,2013-01-22 17:00:00,
2013-01-22 12:05:00,12.8,2.2,30.39,WSW,257,1.0,4.0,62,0.00,,BKN032,0.00,VWS V14.01,2013-01-22 17:05:00,
2013-01-22 12:10:00,13.5,2.6,30.39,WSW,257,1.0,4.0,61,0.00,,BKN032,0.00,VWS V14.01,2013-01-22 17:10:00,
2013-01-22 12:15:00,13.9,3.0,30.39,SW,233,2.0,4.0,61,0.00,,BKN032,0.00,VWS V14.01,2013-01-22 17:15:00,
2013-01-22 12:20:00,13.8,1.8,30.39,WNW,293,3.0,8.0,58,0.00,,BKN032,0.00,VWS V14.01,2013-01-22 17:20:00,
2013-01-22 12:25:00,12.8,1.2,30.39,SW,236,2.0,2.0,59,0.00,,BKN032,0.00,VWS V14.01,2013-01-22 17:25:00,
2013-01-22 12:30:00,12.9,1.3,30.38,NW,304,2.0,7.0,59,0.00,,BKN032,0.00,VWS V14.01,2013-01-22 17:30:00,
2013-01-22 12:35:00,13.3,1.7,30.38,SW,219,1.0,5.0,59,0.00,,OVC036,0.00,VWS V14.01,2013-01-22 17:35:00,
2013-01-22 12:40:00,13.1,1.1,30.38,East,84,1.0,10.0,58,0.00,,OVC036,0.00,VWS V14.01,2013-01-22 17:40:00,
2013-01-22 12:45:00,12.9,1.3,30.38,SE,134,2.0,5.0,59,0.00,,OVC031,0.00,VWS V14.01,2013-01-22 17:45:00,
2013-01-22 12:50:00,12.7,0.7,30.38,West,262,2.0,10.0,58,0.00,,OVC031,0.00,VWS V14.01,2013-01-22 17:50:00,
2013-01-22 12:55:00,12.3,0.0,30.38,West,273,4.0,8.0,57,0.00,,OVC031,0.00,VWS V14.01,2013-01-22 17:55:00,
2013-01-22 13:00:00,12.3,0.3,30.38,WNW,291,4.0,5.0,58,0.00,,OVC036,0.00,VWS V14.01,2013-01-22 18:00:00,
2013-01-22 13:05:00,12.3,1.4,30.37,SSE,165,1.0,6.0,61,0.00,,OVC036,0.00,VWS V14.01,2013-01-22 18:05:00,
2013-01-22 13:10:00,12.7,1.5,30.37,NW,312,4.0,8.0,60,0.00,,OVC036,0.00,VWS V14.01,2013-01-22 18:10:00,
2013-01-22 13:15:00,13.0,1.0,30.37,SSE,152,3.0,6.0,58,0.00,,OVC036,0.00,VWS V14.01,2013-01-22 18:15:00,
2013-01-22 13:20:00,12.7,1.5,30.37,SW,230,4.0,6.0,60,0.00,,OVC036,0.00,VWS V14.01,2013-01-22 18:20:00,
2013-01-22 13:25:00,12.3,1.4,30.36,WSW,238,2.0,3.0,61,0.00,,OVC036,0.00,VWS V14.01,2013-01-22 18:25:00,
2013-01-22 13:30:00,12.3,2.1,30.36,South,174,1.0,6.0,63,0.00,,OVC038,0.00,VWS V14.01,2013-01-22 18:30:00,
2013-01-22 13:35:00,12.8,1.2,30.36,WSW,240,3.0,6.0,59,0.00,,OVC038,0.00,VWS V14.01,2013-01-22 18:35:00,
2013-01-22 13:40:00,13.1,0.7,30.36,North,349,5.0,11.0,57,0.00,,OVC038,0.00,VWS V14.01,2013-01-22 18:40:00,
2013-01-22 13:45:00,13.5,1.5,30.35,WNW,283,3.0,8.0,58,0.00,,OVC031,0.00,VWS V14.01,2013-01-22 18:45:00,
2013-01-22 13:50:00,14.4,2.7,30.35,SW,214,2.0,5.0,59,0.00,,OVC031,0.00,VWS V14.01,2013-01-22 18:50:00,
2013-01-22 13:55:00,14.8,1.2,30.35,West,264,2.0,10.0,54,0.00,,OVC031,0.00,VWS V14.01,2013-01-22 18:55:00,
2013-01-22 14:00:00,14.9,1.7,30.35,South,185,2.0,5.0,55,0.00,,OVC039,0.00,VWS V14.01,2013-01-22 19:00:00,
2013-01-22 14:05:00,15.1,1.9,30.35,NW,322,2.0,5.0,55,0.00,,OVC039,0.00,VWS V14.01,2013-01-22 19:05:00,
2013-01-22 14:10:00,14.4,1.2,30.35,West,274,5.0,7.0,55,0.00,,OVC039,0.00,VWS V14.01,2013-01-22 19:10:00,
2013-01-22 14:15:00,13.8,1.4,30.35,NW,308,2.0,10.0,57,0.00,,OVC039,0.00,VWS V14.01,2013-01-22 19:15:00,
2013-01-22 14:20:00,13.9,2.2,30.35,SW,233,0.0,4.0,59,0.00,,OVC039,0.00,VWS V14.01,2013-01-22 19:20:00,
2013-01-22 14:25:00,13.8,1.8,30.35,WSW,252,1.0,4.0,58,0.00,,OVC039,0.00,VWS V14.01,2013-01-22 19:25:00,
2013-01-22 14:30:00,13.3,1.7,30.35,SW,217,1.0,5.0,59,0.00,,OVC038,0.00,VWS V14.01,2013-01-22 19:30:00,
2013-01-22 14:35:00,13.2,1.9,30.35,NW,321,5.0,6.0,60,0.00,,OVC038,0.00,VWS V14.01,2013-01-22 19:35:00,
2013-01-22 14:40:00,13.4,2.8,30.35,NNE,25,2.0,3.0,62,0.00,,OVC038,0.00,VWS V14.01,2013-01-22 19:40:00,
2013-01-22 14:45:00,13.3,2.7,30.35,WNW,288,1.0,1.0,62,0.00,,OVC033,0.00,VWS V14.01,2013-01-22 19:45:00,
2013-01-22 14:50:00,13.5,2.6,30.35,SW,226,3.0,3.0,61,0.00,,OVC033,0.00,VWS V14.01,2013-01-22 19:50:00,
2013-01-22 14:55:00,13.7,2.8,30.35,WNW,293,2.0,2.0,61,0.00,,OVC033,0.00,VWS V14.01,2013-01-22 19:55:00,
2013-01-22 15:00:00,13.5,1.5,30.36,WNW,302,4.0,4.0,58,0.00,,OVC036,0.00,VWS V14.01,2013-01-22 20:00:00,
2013-01-22 15:05:00,13.6,1.6,30.36,NW,309,1.0,1.0,58,0.00,,OVC036,0.00,VWS V14.01,2013-01-22 20:05:00,
2013-01-22 15:10:00,13.8,1.0,30.36,West,278,2.0,3.0,56,0.00,,OVC036,0.00,VWS V14.01,2013-01-22 20:10:00,
2013-01-22 15:15:00,13.8,1.0,30.36,SSW,201,2.0,3.0,56,0.00,,OVC036,0.00,VWS V14.01,2013-01-22 20:15:00,
2013-01-22 15:20:00,14.0,0.8,30.36,West,259,3.0,4.0,55,0.00,,OVC036,0.00,VWS V14.01,2013-01-22 20:20:00,
2013-01-22 15:25:00,14.2,1.0,30.36,West,277,4.0,4.0,55,0.00,,OVC036,0.00,VWS V14.01,2013-01-22 20:25:00,
2013-01-22 15:30:00,14.4,0.8,30.36,WNW,300,2.0,3.0,54,0.00,,OVC034,0.00,VWS V14.01,2013-01-22 20:30:00,
2013-01-22 15:35:00,14.7,1.5,30.36,NW,323,5.0,5.0,55,0.00,,OVC034,0.00,VWS V14.01,2013-01-22 20:35:00,
2013-01-22 15:40:00,14.3,1.9,30.37,WNW,301,1.0,4.0,57,0.00,,OVC034,0.00,VWS V14.01,2013-01-22 20:40:00,
2013-01-22 15:45:00,14.0,2.0,30.37,WNW,293,3.0,3.0,58,0.00,,OVC034,0.00,VWS V14.01,2013-01-22 20:45:00,
2013-01-22 15:50:00,13.8,2.1,30.37,WSW,245,3.0,3.0,59,0.00,,OVC034,0.00,VWS V14.01,2013-01-22 20:50:00,
2013-01-22 15:55:00,13.6,2.0,30.37,West,267,2.0,3.0,59,0.00,,OVC034,0.00,VWS V14.01,2013-01-22 20:55:00,
2013-01-22 16:00:00,13.7,2.0,30.37,WNW,293,1.0,3.0,59,0.00,,OVC037,0.00,VWS V14.01,2013-01-22 21:00:00,
2013-01-22 16:05:00,13.9,1.5,30.37,NW,307,2.0,3.0,57,0.00,,OVC037,0.00,VWS V14.01,2013-01-22 21:05:00,
2013-01-22 16:10:00,13.8,1.4,30.36,NW,308,4.0,7.0,57,0.00,,,0.00,VWS V14.01,2013-01-22 21:10:00,
2013-01-22 16:11:00,13.8,1.4,30.36,WSW,248,6.0,6.0,57,0.00,,OVC037,0.00,VWS V14.01,2013-01-22 21:11:00,
2013-01-22 16:15:00,13.8,1.4,30.36,WSW,252,1.0,9.0,57,0.00,,,0.00,VWS V14.01,2013-01-22 21:15:00,
2013-01-22 16:16:00,13.8,1.4,30.36,WNW,300,1.0,2.0,57,0.00,,OVC037,0.00,VWS V14.01,2013-01-22 21:16:00,
2013-01-22 16:20:00,14.1,1.3,30.36,WSW,250,4.0,9.0,56,0.00,,,0.00,VWS V14.01,2013-01-22 21:20:00,
2013-01-22 16:21:00,14.1,1.3,30.36,West,259,2.0,4.0,56,0.00,,OVC037,0.00,VWS V14.01,2013-01-22 21:21:00,
2013-01-22 16:25:00,14.2,1.0,30.36,West,259,2.0,5.0,55,0.00,,,0.00,VWS V14.01,2013-01-22 21:25:00,
2013-01-22 16:26:00,14.2,1.0,30.36,West,262,2.0,5.0,55,0.00,,OVC037,0.00,VWS V14.01,2013-01-22 21:26:00,
2013-01-22 16:30:00,14.3,1.1,30.36,SE,127,1.0,5.0,55,0.00,,,0.00,VWS V14.01,2013-01-22 21:30:00,
2013-01-22 16:31:00,14.4,1.2,30.36,ESE,113,1.0,2.0,55,0.00,,OVC039,0.00,VWS V14.01,2013-01-22 21:31:00,
2013-01-22 16:35:00,14.3,0.7,30.36,WSW,248,1.0,9.0,54,0.00,,,0.00,VWS V14.01,2013-01-22 21:35:00,
2013-01-22 16:36:00,14.3,0.7,30.36,South,191,4.0,5.0,54,0.00,,OVC039,0.00,VWS V14.01,2013-01-22 21:36:00,
2013-01-22 16:40:00,14.2,1.0,30.37,WSW,256,3.0,7.0,55,0.00,,,0.00,VWS V14.01,2013-01-22 21:40:00,
2013-01-22 16:41:00,14.2,1.0,30.37,West,273,2.0,4.0,55,0.00,,OVC039,0.00,VWS V14.01,2013-01-22 21:41:00,
2013-01-22 16:45:00,14.2,1.0,30.37,West,267,1.0,7.0,55,0.00,,,0.00,VWS V14.01,2013-01-22 21:45:00,
2013-01-22 16:46:00,14.2,1.0,30.37,NW,311,2.0,3.0,55,0.00,,OVC039,0.00,VWS V14.01,2013-01-22 21:46:00,
2013-01-22 16:50:00,14.2,1.4,30.37,West,272,3.0,8.0,56,0.00,,,0.00,VWS V14.01,2013-01-22 21:50:00,
2013-01-22 16:51:00,14.2,1.0,30.36,West,281,3.0,9.0,55,0.00,,OVC039,0.00,VWS V14.01,2013-01-22 21:51:00,
2013-01-22 16:55:00,14.2,1.0,30.36,WNW,286,1.0,9.0,55,0.00,,,0.00,VWS V14.01,2013-01-22 21:55:00,
2013-01-22 16:56:00,14.2,1.0,30.36,West,266,5.0,7.0,55,0.00,,OVC039,0.00,VWS V14.01,2013-01-22 21:56:00,
2013-01-22 17:00:00,14.2,1.0,30.36,WNW,300,5.0,7.0,55,0.00,,,0.00,VWS V14.01,2013-01-22 22:00:00,
2013-01-22 17:02:00,14.2,1.0,30.36,NW,321,3.0,6.0,55,0.00,,OVC041,0.00,VWS V14.01,2013-01-22 22:02:00,
2013-01-22 17:05:00,14.2,1.0,30.36,WSW,257,5.0,8.0,55,0.00,,,0.00,VWS V14.01,2013-01-22 22:05:00,
2013-01-22 17:07:00,14.1,0.9,30.36,West,267,4.0,9.0,55,0.00,,OVC041,0.00,VWS V14.01,2013-01-22 22:07:00,
2013-01-22 17:10:00,14.2,1.4,30.36,West,267,1.0,9.0,56,0.00,,,0.00,VWS V14.01,2013-01-22 22:10:00,
2013-01-22 17:12:00,14.3,1.5,30.36,West,269,4.0,9.0,56,0.00,,OVC041,0.00,VWS V14.01,2013-01-22 22:12:00,
2013-01-22 17:15:00,14.3,0.7,30.36,West,271,1.0,9.0,54,0.00,,,0.00,VWS V14.01,2013-01-22 22:15:00,
2013-01-22 17:17:00,14.2,0.6,30.37,WSW,255,2.0,9.0,54,0.00,,OVC041,0.00,VWS V14.01,2013-01-22 22:17:00,
2013-01-22 17:20:00,14.1,0.5,30.37,SW,222,4.0,9.0,54,0.00,,,0.00,VWS V14.01,2013-01-22 22:20:00,
2013-01-22 17:22:00,14.1,0.5,30.37,WNW,300,3.0,6.0,54,0.00,,OVC041,0.00,VWS V14.01,2013-01-22 22:22:00,
2013-01-22 17:25:00,14.0,0.8,30.37,WSW,253,1.0,6.0,55,0.00,,,0.00,VWS V14.01,2013-01-22 22:25:00,
2013-01-22 17:27:00,13.9,0.3,30.37,West,260,4.0,6.0,54,0.00,,OVC041,0.00,VWS V14.01,2013-01-22 22:27:00,
2013-01-22 17:30:00,13.8,0.6,30.37,SSW,212,2.0,8.0,55,0.00,,,0.00,VWS V14.01,2013-01-22 22:30:00,
2013-01-22 17:32:00,13.8,1.0,30.37,West,266,2.0,4.0,56,0.00,,BKN039,0.00,VWS V14.01,2013-01-22 22:32:00,
2013-01-22 17:35:00,13.7,0.9,30.37,WSW,242,3.0,4.0,56,0.00,,,0.00,VWS V14.01,2013-01-22 22:35:00,
2013-01-22 17:37:00,13.6,0.8,30.37,WSW,245,2.0,3.0,56,0.00,,BKN039,0.00,VWS V14.01,2013-01-22 22:37:00,
2013-01-22 17:40:00,13.5,0.7,30.37,NW,323,2.0,8.0,56,0.00,,,0.00,VWS V14.01,2013-01-22 22:40:00,
2013-01-22 17:42:00,13.5,0.7,30.37,SSW,200,0.0,4.0,56,0.00,,BKN039,0.00,VWS V14.01,2013-01-22 22:42:00,
2013-01-22 17:45:00,13.4,1.0,30.37,West,270,2.0,4.0,57,0.00,,,0.00,VWS V14.01,2013-01-22 22:45:00,
2013-01-22 17:47:00,13.4,0.6,30.37,WSW,239,0.0,4.0,56,0.00,,SCT040,0.00,VWS V14.01,2013-01-22 22:47:00,
2013-01-22 17:50:00,13.3,0.9,30.37,WNW,290,1.0,11.0,57,0.00,,,0.00,VWS V14.01,2013-01-22 22:50:00,
2013-01-22 17:52:00,13.2,0.8,30.37,WNW,298,2.0,7.0,57,0.00,,SCT040,0.00,VWS V14.01,2013-01-22 22:52:00,
2013-01-22 17:55:00,13.2,1.2,30.37,WSW,252,7.0,7.0,58,0.00,,,0.00,VWS V14.01,2013-01-22 22:55:00,
2013-01-22 17:57:00,13.2,1.2,30.37,WNW,283,0.0,7.0,58,0.00,,SCT040,0.00,VWS V14.01,2013-01-22 22:57:00,
2013-01-22 18:00:00,13.2,1.6,30.37,SW,218,1.0,7.0,59,0.00,,,0.00,VWS V14.01,2013-01-22 23:00:00,
2013-01-22 18:02:00,13.1,1.1,30.37,West,260,3.0,6.0,58,0.00,,SCT120,0.00,VWS V14.01,2013-01-22 23:02:00,
2013-01-22 18:05:00,13.2,1.2,30.37,WSW,248,1.0,6.0,58,0.00,,,0.00,VWS V14.01,2013-01-22 23:05:00,
2013-01-22 18:07:00,13.2,1.2,30.37,WSW,245,2.0,5.0,58,0.00,,SCT120,0.00,VWS V14.01,2013-01-22 23:07:00,
2013-01-22 18:10:00,13.2,1.2,30.37,WSW,256,1.0,5.0,58,0.00,,,0.00,VWS V14.01,2013-01-22 23:10:00,
2013-01-22 18:12:00,13.2,1.6,30.38,WNW,282,2.0,4.0,59,0.00,,SCT120,0.00,VWS V14.01,2013-01-22 23:12:00,
2013-01-22 18:15:00,13.1,1.1,30.38,WSW,239,2.0,7.0,58,0.00,,,0.00,VWS V14.01,2013-01-22 23:15:00,
2013-01-22 18:17:00,13.1,1.1,30.38,West,266,4.0,6.0,58,0.00,,SCT120,0.00,VWS V14.01,2013-01-22 23:17:00,
2013-01-22 18:20:00,13.0,1.0,30.38,West,259,5.0,8.0,58,0.00,,,0.00,VWS V14.01,2013-01-22 23:20:00,
2013-01-22 18:23:00,13.0,1.4,30.38,NNW,345,1.0,6.0,59,0.00,,SCT120,0.00,VWS V14.01,2013-01-22 23:23:00,
2013-01-22 18:25:00,12.9,1.3,30.38,WSW,258,5.0,6.0,59,0.00,,,0.00,VWS V14.01,2013-01-22 23:25:00,
2013-01-22 18:28:00,12.9,1.3,30.38,West,260,3.0,8.0,59,0.00,,SCT120,0.00,VWS V14.01,2013-01-22 23:28:00,
2013-01-22 18:30:00,12.9,1.3,30.38,WSW,246,1.0,8.0,59,0.00,,,0.00,VWS V14.01,2013-01-22 23:30:00,
2013-01-22 18:33:00,12.9,1.6,30.38,West,277,2.0,6.0,60,0.00,,SCT110,0.00,VWS V14.01,2013-01-22 23:33:00,
2013-01-22 18:35:00,12.9,1.3,30.39,West,269,4.0,6.0,59,0.00,,,0.00,VWS V14.01,2013-01-22 23:35:00,
2013-01-22 18:38:00,12.9,1.6,30.39,West,273,1.0,7.0,60,0.00,,SCT110,0.00,VWS V14.01,2013-01-22 23:38:00,
2013-01-22 18:40:00,12.8,1.5,30.39,WNW,297,0.0,7.0,60,0.00,,,0.00,VWS V14.01,2013-01-22 23:40:00,
2013-01-22 18:43:00,12.8,1.9,30.39,NW,306,4.0,7.0,61,0.00,,SCT110,0.00,VWS V14.01,2013-01-22 23:43:00,
2013-01-22 18:45:00,12.8,1.9,30.39,West,269,1.0,7.0,61,0.00,,,0.00,VWS V14.01,2013-01-22 23:45:00,
2013-01-22 18:48:00,12.7,1.8,30.39,West,270,2.0,2.0,61,0.00,,CLR,0.00,VWS V14.01,2013-01-22 23:48:00,
2013-01-22 18:50:00,12.7,1.8,30.39,SSW,205,1.0,2.0,61,0.00,,,0.00,VWS V14.01,2013-01-22 23:50:00,
2013-01-22 18:53:00,12.7,1.8,30.38,WNW,301,3.0,4.0,61,0.00,,CLR,0.00,VWS V14.01,2013-01-22 23:53:00,
2013-01-22 18:55:00,12.6,1.7,30.38,WNW,295,1.0,4.0,61,0.00,,,0.00,VWS V14.01,2013-01-22 23:55:00,
2013-01-22 18:58:00,12.7,2.2,30.38,WSW,240,3.0,4.0,62,0.00,,CLR,0.00,VWS V14.01,2013-01-22 23:58:00,
2013-01-22 19:00:00,12.7,1.8,30.38,West,281,1.0,5.0,61,0.00,,,0.00,VWS V14.01,2013-01-23 00:00:00,
2013-01-22 19:03:00,12.7,1.8,30.38,West,276,2.0,4.0,61,0.00,,CLR,0.00,VWS V14.01,2013-01-23 00:03:00,
2013-01-22 19:05:00,12.7,2.2,30.38,West,278,1.0,4.0,62,0.00,,,0.00,VWS V14.01,2013-01-23 00:05:00,
2013-01-22 19:08:00,12.7,1.8,30.38,SW,224,3.0,6.0,61,0.00,,CLR,0.00,VWS V14.01,2013-01-23 00:08:00,
2013-01-22 19:10:00,12.7,1.8,30.38,West,264,2.0,6.0,61,0.00,,,0.00,VWS V14.01,2013-01-23 00:10:00,
2013-01-22 19:13:00,12.7,1.8,30.38,West,271,2.0,5.0,61,0.00,,CLR,0.00,VWS V14.01,2013-01-23 00:13:00,
2013-01-22 19:15:00,12.7,2.2,30.38,West,259,0.0,5.0,62,0.00,,,0.00,VWS V14.01,2013-01-23 00:15:00,
2013-01-22 19:18:00,12.8,2.2,30.38,SSE,163,2.0,5.0,62,0.00,,CLR,0.00,VWS V14.01,2013-01-23 00:18:00,
2013-01-22 19:20:00,12.8,1.9,30.38,West,277,1.0,5.0,61,0.00,,,0.00,VWS V14.01,2013-01-23 00:20:00,
2013-01-22 19:23:00,12.8,2.2,30.38,WSW,238,3.0,7.0,62,0.00,,CLR,0.00,VWS V14.01,2013-01-23 00:23:00,
2013-01-22 19:25:00,12.8,1.9,30.38,WSW,251,2.0,7.0,61,0.00,,,0.00,VWS V14.01,2013-01-23 00:25:00,
2013-01-22 19:28:00,12.8,2.2,30.38,West,274,1.0,5.0,62,0.00,,CLR,0.00,VWS V14.01,2013-01-23 00:28:00,
2013-01-22 19:30:00,12.8,2.2,30.38,West,273,1.0,5.0,62,0.00,,,0.00,VWS V14.01,2013-01-23 00:30:00,
2013-01-22 19:33:00,12.8,1.9,30.38,West,278,2.0,4.0,61,0.00,,CLR,0.00,VWS V14.01,2013-01-23 00:33:00,
2013-01-22 19:35:00,12.8,1.9,30.38,West,278,2.0,6.0,61,0.00,,,0.00,VWS V14.01,2013-01-23 00:35:00,
2013-01-22 19:38:00,12.9,2.0,30.38,South,183,4.0,5.0,61,0.00,,CLR,0.00,VWS V14.01,2013-01-23 00:38:00,
2013-01-22 19:40:00,12.9,2.3,30.38,NW,308,1.0,5.0,62,0.00,,,0.00,VWS V14.01,2013-01-23 00:40:00,
2013-01-22 19:43:00,12.9,2.3,30.38,WSW,238,1.0,2.0,62,0.00,,CLR,0.00,VWS V14.01,2013-01-23 00:43:00,
2013-01-22 19:45:00,12.9,2.3,30.38,WNW,290,3.0,5.0,62,0.00,,,0.00,VWS V14.01,2013-01-23 00:45:00,
2013-01-22 19:48:00,12.9,2.0,30.38,West,269,2.0,9.0,61,0.00,,CLR,0.00,VWS V14.01,2013-01-23 00:48:00,
2013-01-22 19:50:00,12.9,2.0,30.38,WSW,258,1.0,9.0,61,0.00,,,0.00,VWS V14.01,2013-01-23 00:50:00,
2013-01-22 19:53:00,12.9,2.0,30.38,WSW,257,2.0,7.0,61,0.00,,CLR,0.00,VWS V14.01,2013-01-23 00:53:00,
2013-01-22 19:55:00,12.9,2.0,30.38,SW,235,2.0,7.0,61,0.00,,,0.00,VWS V14.01,2013-01-23 00:55:00,
2013-01-22 19:58:00,12.9,2.0,30.38,West,260,2.0,4.0,61,0.00,,CLR,0.00,VWS V14.01,2013-01-23 00:58:00,
2013-01-22 20:00:00,12.9,2.0,30.38,WNW,284,1.0,9.0,61,0.00,,,0.00,VWS V14.01,2013-01-23 01:00:00,
2013-01-22 20:03:00,12.9,2.0,30.38,West,266,6.0,6.0,61,0.00,,CLR,0.00,VWS V14.01,2013-01-23 01:03:00,
2013-01-22 20:05:00,13.0,2.1,30.38,West,263,1.0,7.0,61,0.00,,,0.00,VWS V14.01,2013-01-23 01:05:00,
2013-01-22 20:08:00,13.0,2.1,30.38,West,278,1.0,6.0,61,0.00,,CLR,0.00,VWS V14.01,2013-01-23 01:08:00,
2013-01-22 20:10:00,13.0,2.1,30.38,West,259,1.0,6.0,61,0.00,,,0.00,VWS V14.01,2013-01-23 01:10:00,
2013-01-22 20:13:00,13.0,2.1,30.38,WNW,300,2.0,7.0,61,0.00,,CLR,0.00,VWS V14.01,2013-01-23 01:13:00,
2013-01-22 20:15:00,13.0,2.4,30.38,WNW,297,3.0,7.0,62,0.00,,,0.00,VWS V14.01,2013-01-23 01:15:00,
2013-01-22 20:18:00,13.0,2.1,30.38,West,269,0.0,5.0,61,0.00,,CLR,0.00,VWS V14.01,2013-01-23 01:18:00,
2013-01-22 20:20:00,13.0,2.1,30.38,West,281,1.0,5.0,61,0.00,,,0.00,VWS V14.01,2013-01-23 01:20:00,
2013-01-22 20:23:00,13.0,2.1,30.38,West,281,1.0,5.0,61,0.00,,CLR,0.00,VWS V14.01,2013-01-23 01:23:00,
2013-01-22 20:25:00,13.0,2.1,30.38,WNW,300,3.0,5.0,61,0.00,,,0.00,VWS V14.01,2013-01-23 01:25:00,
2013-01-22 20:28:00,12.9,2.0,30.38,NW,308,4.0,6.0,61,0.00,,CLR,0.00,VWS V14.01,2013-01-23 01:28:00,
2013-01-22 20:30:00,12.9,2.0,30.38,WNW,283,1.0,6.0,61,0.00,,,0.00,VWS V14.01,2013-01-23 01:30:00,
2013-01-22 20:33:00,12.9,2.0,30.37,SSE,160,0.0,4.0,61,0.00,,CLR,0.00,VWS V14.01,2013-01-23 01:33:00,
2013-01-22 20:35:00,12.9,2.0,30.37,West,262,1.0,5.0,61,0.00,,,0.00,VWS V14.01,2013-01-23 01:35:00,
2013-01-22 20:38:00,12.9,2.0,30.37,WSW,245,5.0,5.0,61,0.00,,CLR,0.00,VWS V14.01,2013-01-23 01:38:00,
2013-01-22 20:40:00,12.9,2.0,30.37,WNW,291,2.0,6.0,61,0.00,,,0.00,VWS V14.01,2013-01-23 01:40:00,
2013-01-22 20:43:00,12.8,1.5,30.37,NNW,338,5.0,7.0,60,0.00,,CLR,0.00,VWS V14.01,2013-01-23 01:43:00,
2013-01-22 20:45:00,12.8,1.5,30.37,NW,306,3.0,7.0,60,0.00,,,0.00,VWS V14.01,2013-01-23 01:45:00,
2013-01-22 20:48:00,12.8,1.5,30.37,WNW,293,2.0,7.0,60,0.00,,CLR,0.00,VWS V14.01,2013-01-23 01:48:00,
2013-01-22 20:50:00,12.8,1.5,30.37,WSW,245,1.0,7.0,60,0.00,,,0.00,VWS V14.01,2013-01-23 01:50:00,
2013-01-22 20:53:00,12.7,1.5,30.37,NW,304,2.0,5.0,60,0.00,,CLR,0.00,VWS V14.01,2013-01-23 01:53:00,
2013-01-22 20:55:00,12.7,1.5,30.37,West,277,1.0,5.0,60,0.00,,,0.00,VWS V14.01,2013-01-23 01:55:00,
2013-01-22 20:58:00,12.7,1.5,30.37,SW,224,4.0,4.0,60,0.00,,CLR,0.00,VWS V14.01,2013-01-23 01:58:00,
2013-01-22 21:00:00,12.7,1.5,30.37,WNW,282,1.0,5.0,60,0.00,,,0.00,VWS V14.01,2013-01-23 02:00:00,
2013-01-22 21:03:00,12.7,1.5,30.37,WSW,246,4.0,5.0,60,0.00,,CLR,0.00,VWS V14.01,2013-01-23 02:03:00,
2013-01-22 21:05:00,12.7,1.1,30.37,SW,228,4.0,6.0,59,0.00,,,0.00,VWS V14.01,2013-01-23 02:05:00,
2013-01-22 21:08:00,12.7,1.5,30.37,NW,310,5.0,5.0,60,0.00,,CLR,0.00,VWS V14.01,2013-01-23 02:08:00,
2013-01-22 21:10:00,12.7,1.5,30.37,WSW,255,0.0,5.0,60,0.00,,,0.00,VWS V14.01,2013-01-23 02:10:00,
2013-01-22 21:13:00,12.7,1.8,30.37,WNW,297,3.0,3.0,61,0.00,,CLR,0.00,VWS V14.01,2013-01-23 02:13:00,
2013-01-22 21:15:00,12.7,1.8,30.37,WNW,297,1.0,4.0,61,0.00,,,0.00,VWS V14.01,2013-01-23 02:15:00,
2013-01-22 21:18:00,12.7,1.8,30.38,WNW,286,1.0,3.0,61,0.00,,CLR,0.00,VWS V14.01,2013-01-23 02:18:00,
2013-01-22 21:20:00,12.7,1.8,30.38,West,262,1.0,5.0,61,0.00,,,0.00,VWS V14.01,2013-01-23 02:20:00,
2013-01-22 21:23:00,12.7,1.8,30.38,WNW,290,0.0,3.0,61,0.00,,CLR,0.00,VWS V14.01,2013-01-23 02:23:00,
2013-01-22 21:25:00,12.7,2.2,30.38,WSW,252,2.0,3.0,62,0.00,,,0.00,VWS V14.01,2013-01-23 02:25:00,
2013-01-22 21:28:00,12.7,1.8,30.38,West,259,2.0,6.0,61,0.00,,CLR,0.00,VWS V14.01,2013-01-23 02:28:00,
2013-01-22 21:30:00,12.7,1.8,30.38,West,260,2.0,6.0,61,0.00,,,0.00,VWS V14.01,2013-01-23 02:30:00,
2013-01-22 21:33:00,12.7,1.8,30.38,ESE,113,4.0,5.0,61,0.00,,CLR,0.00,VWS V14.01,2013-01-23 02:33:00,
2013-01-22 21:35:00,12.7,2.2,30.38,WSW,240,0.0,5.0,62,0.00,,,0.00,VWS V14.01,2013-01-23 02:35:00,
2013-01-22 21:39:00,12.8,1.9,30.38,WSW,243,2.0,6.0,61,0.00,,CLR,0.00,VWS V14.01,2013-01-23 02:39:00,
2013-01-22 21:40:00,12.8,1.9,30.38,West,269,1.0,6.0,61,0.00,,,0.00,VWS V14.01,2013-01-23 02:40:00,
2013-01-22 21:44:00,12.8,2.6,30.38,West,277,1.0,2.0,63,0.00,,CLR,0.00,VWS V14.01,2013-01-23 02:44:00,
2013-01-22 21:45:00,12.8,2.2,30.38,WNW,290,2.0,6.0,62,0.00,,,0.00,VWS V14.01,2013-01-23 02:45:00,
2013-01-22 21:49:00,12.8,2.2,30.38,West,267,2.0,6.0,62,0.00,,CLR,0.00,VWS V14.01,2013-01-23 02:49:00,
2013-01-22 21:50:00,12.8,2.2,30.38,West,266,2.0,6.0,62,0.00,,,0.00,VWS V14.01,2013-01-23 02:50:00,
2013-01-22 21:54:00,12.7,1.8,30.38,West,267,1.0,4.0,61,0.00,,CLR,0.00,VWS V14.01,2013-01-23 02:54:00,
2013-01-22 21:55:00,12.7,1.8,30.38,West,267,1.0,4.0,61,0.00,,,0.00,VWS V14.01,2013-01-23 02:55:00,
2013-01-22 21:59:00,12.7,1.8,30.38,SW,221,1.0,6.0,61,0.00,,CLR,0.00,VWS V14.01,2013-01-23 02:59:00,
2013-01-22 22:00:00,12.7,2.2,30.38,SW,225,2.0,6.0,62,0.00,,,0.00,VWS V14.01,2013-01-23 03:00:00,
2013-01-22 22:04:00,12.7,1.8,30.38,WSW,255,2.0,5.0,61,0.00,,CLR,0.00,VWS V14.01,2013-01-23 03:04:00,
2013-01-22 22:05:00,12.7,1.8,30.38,West,280,1.0,8.0,61,0.00,,,0.00,VWS V14.01,2013-01-23 03:05:00,
2013-01-22 22:09:00,12.8,1.9,30.38,WNW,293,1.0,5.0,61,0.00,,CLR,0.00,VWS V14.01,2013-01-23 03:09:00,
2013-01-22 22:10:00,12.7,1.8,30.38,NW,304,1.0,5.0,61,0.00,,,0.00,VWS V14.01,2013-01-23 03:10:00,
2013-01-22 22:14:00,12.7,1.8,30.38,West,270,0.0,5.0,61,0.00,,CLR,0.00,VWS V14.01,2013-01-23 03:14:00,
2013-01-22 22:15:00,12.7,1.8,30.38,WNW,283,1.0,5.0,61,0.00,,,0.00,VWS V14.01,2013-01-23 03:15:00,
2013-01-22 22:19:00,12.7,2.2,30.39,West,274,1.0,6.0,62,0.00,,CLR,0.00,VWS V14.01,2013-01-23 03:19:00,
2013-01-22 22:20:00,12.7,2.2,30.38,WNW,300,2.0,6.0,62,0.00,,,0.00,VWS V14.01,2013-01-23 03:20:00,
2013-01-22 22:24:00,12.8,2.2,30.39,ESE,113,0.0,4.0,62,0.00,,CLR,0.00,VWS V14.01,2013-01-23 03:24:00,
2013-01-22 22:25:00,12.7,2.2,30.39,WNW,294,2.0,4.0,62,0.00,,,0.00,VWS V14.01,2013-01-23 03:25:00,
2013-01-22 22:29:00,12.8,1.9,30.38,WNW,293,4.0,6.0,61,0.00,,CLR,0.00,VWS V14.01,2013-01-23 03:29:00,
2013-01-22 22:30:00,12.8,2.2,30.39,SW,221,1.0,6.0,62,0.00,,,0.00,VWS V14.01,2013-01-23 03:30:00,
2013-01-22 22:34:00,12.9,2.3,30.39,WSW,255,1.0,4.0,62,0.00,,CLR,0.00,VWS V14.01,2013-01-23 03:34:00,
2013-01-22 22:35:00,12.8,2.2,30.39,WSW,245,1.0,4.0,62,0.00,,,0.00,VWS V14.01,2013-01-23 03:35:00,
2013-01-22 22:39:00,12.9,2.0,30.39,WNW,293,2.0,4.0,61,0.00,,CLR,0.00,VWS V14.01,2013-01-23 03:39:00,
2013-01-22 22:40:00,12.9,2.3,30.39,West,269,3.0,5.0,62,0.00,,,0.00,VWS V14.01,2013-01-23 03:40:00,
2013-01-22 22:44:00,12.8,2.2,30.39,SW,218,4.0,4.0,62,0.00,,CLR,0.00,VWS V14.01,2013-01-23 03:44:00,
2013-01-22 22:45:00,12.8,2.2,30.39,NW,326,2.0,4.0,62,0.00,,,0.00,VWS V14.01,2013-01-23 03:45:00,
2013-01-22 22:49:00,12.8,2.2,30.39,NW,318,2.0,7.0,62,0.00,,CLR,0.00,VWS V14.01,2013-01-23 03:49:00,
2013-01-22 22:50:00,12.7,2.2,30.39,West,269,2.0,7.0,62,0.00,,,0.00,VWS V14.01,2013-01-23 03:50:00,
2013-01-22 22:54:00,12.7,1.8,30.39,West,266,2.0,4.0,61,0.00,,CLR,0.00,VWS V14.01,2013-01-23 03:54:00,
2013-01-22 22:55:00,12.7,1.8,30.39,NW,311,2.0,4.0,61,0.00,,,0.00,VWS V14.01,2013-01-23 03:55:00,
2013-01-22 22:59:00,12.6,2.1,30.39,West,271,3.0,4.0,62,0.00,,CLR,0.00,VWS V14.01,2013-01-23 03:59:00,
2013-01-22 23:00:00,12.6,2.1,30.39,NW,314,3.0,4.0,62,0.00,,,0.00,VWS V14.01,2013-01-23 04:00:00,
2013-01-22 23:04:00,12.6,2.1,30.39,West,266,4.0,6.0,62,0.00,,CLR,0.00,VWS V14.01,2013-01-23 04:04:00,
2013-01-22 23:05:00,12.7,1.8,30.39,WSW,257,3.0,6.0,61,0.00,,,0.00,VWS V14.01,2013-01-23 04:05:00,
2013-01-22 23:09:00,12.7,1.8,30.39,NW,308,2.0,5.0,61,0.00,,CLR,0.00,VWS V14.01,2013-01-23 04:09:00,
2013-01-22 23:10:00,12.7,1.8,30.39,West,262,2.0,5.0,61,0.00,,,0.00,VWS V14.01,2013-01-23 04:10:00,
2013-01-22 23:14:00,12.6,2.1,30.39,West,279,2.0,6.0,62,0.00,,CLR,0.00,VWS V14.01,2013-01-23 04:14:00,
2013-01-22 23:15:00,12.7,2.2,30.39,West,269,5.0,6.0,62,0.00,,,0.00,VWS V14.01,2013-01-23 04:15:00,
2013-01-22 23:19:00,12.6,2.1,30.39,West,270,1.0,5.0,62,0.00,,CLR,0.00,VWS V14.01,2013-01-23 04:19:00,
2013-01-22 23:20:00,12.6,2.1,30.39,NW,322,2.0,6.0,62,0.00,,,0.00,VWS V14.01,2013-01-23 04:20:00,
2013-01-22 23:24:00,12.6,1.7,30.39,WNW,302,3.0,5.0,61,0.00,,CLR,0.00,VWS V14.01,2013-01-23 04:24:00,
2013-01-22 23:25:00,12.6,2.1,30.39,West,259,0.0,5.0,62,0.00,,,0.00,VWS V14.01,2013-01-23 04:25:00,
2013-01-22 23:29:00,12.6,1.7,30.39,SW,225,1.0,6.0,61,0.00,,CLR,0.00,VWS V14.01,2013-01-23 04:29:00,
2013-01-22 23:30:00,12.5,1.6,30.39,West,264,1.0,6.0,61,0.00,,,0.00,VWS V14.01,2013-01-23 04:30:00,
2013-01-22 23:34:00,12.5,2.0,30.38,West,273,1.0,3.0,62,0.00,,CLR,0.00,VWS V14.01,2013-01-23 04:34:00,
2013-01-22 23:35:00,12.5,2.0,30.39,NNE,30,0.0,3.0,62,0.00,,,0.00,VWS V14.01,2013-01-23 04:35:00,
2013-01-22 23:39:00,12.5,2.0,30.39,SSW,207,0.0,2.0,62,0.00,,CLR,0.00,VWS V14.01,2013-01-23 04:39:00,
2013-01-22 23:40:00,12.5,2.0,30.38,West,268,0.0,2.0,62,0.00,,,0.00,VWS V14.01,2013-01-23 04:40:00,
2013-01-22 23:44:00,12.5,2.3,30.39,WNW,293,2.0,4.0,63,0.00,,CLR,0.00,VWS V14.01,2013-01-23 04:44:00,
2013-01-22 23:45:00,12.5,2.3,30.39,SW,228,0.0,4.0,63,0.00,,,0.00,VWS V14.01,2013-01-23 04:45:00,
2013-01-22 23:49:00,12.5,2.3,30.39,SE,130,0.0,3.0,63,0.00,,CLR,0.00,VWS V14.01,2013-01-23 04:49:00,
2013-01-22 23:50:00,12.5,2.3,30.39,SE,130,0.0,3.0,63,0.00,,,0.00,VWS V14.01,2013-01-23 04:50:00,
2013-01-22 23:54:00,12.5,2.7,30.39,SW,224,0.0,2.0,64,0.00,,CLR,0.00,VWS V14.01,2013-01-23 04:54:00,
2013-01-22 23:55:00,12.5,2.7,30.38,WSW,245,0.0,2.0,64,0.00,,,0.00,VWS V14.01,2013-01-23 04:55:00,
2013-01-22 23:59:00,12.4,2.2,30.39,WSW,255,0.0,3.0,63,0.00,,CLR,0.00,VWS V14.01,2013-01-23 04:59:00,